Wind_Speed
29 30 29 29 29 28 27 27 27 28 29 30 31 32 34 36 36 37 38 39 40 44 45 47 48 47 46 45 44 44 42 40 39 38 38 36 33 33 34 37 40 39 36 36 36 37 39 42 44 45 44 43 41 38 36 36 38 40 42 45 51 57 62 64 60 51 49 56 61 59 59 61 64 62 60 64 73 78 76 73 71 69 67 65 63
27 26 25 24 25 25 25 26 26 27 27 27 28 28 30 32 34 36 38 39 39 41 42 43 44 44 44 44 43 43 42 41 39 38 38 36 33 31 33 36 39 39 38 37 35 35 35 38 41 44 44 43 40 37 35 35 37 39 41 42 46 51 56 61 64 59 51 49 53 55 54 54 57 60 60 56 59 69 77 79 75 71 70 68 66
24 24 23 23 24 24 25 26 26 26 25 25 25 25 26 27 29 31 34 36 38 39 40 39 40 40 40 40 40 41 41 41 39 37 38 35 32 32 32 35 38 38 38 37 35 34 35 36 38 41 43 42 39 35 34 35 36 37 39 40 42 46 51 54 60 65 61 53 50 50 50 49 50 53 57 57 54 55 62 72 76 75 72 71 69
23 24 24 24 25 26 26 26 26 26 25 24 23 22 23 22 23 25 28 31 34 35 37 37 38 37 36 35 36 37 38 37 35 36 37 35 33 33 32 34 36 37 38 37 35 34 35 35 37 39 41 41 38 35 34 35 35 36 37 38 40 42 46 50 54 61 65 63 57 51 48 47 46 46 50 55 57 54 53 57 64 69 72 74 73
24 24 25 26 27 28 29 29 29 29 28 27 26 23 21 20 18 18 20 23 26 29 32 33 34 33 31 31 31 31 32 32 33 35 36 33 33 33 31 32 35 36 36 36 34 33 34 35 36 38 40 39 37 35 35 35 34 34 35 36 37 38 40 44 48 53 60 65 65 61 55 50 46 45 46 49 53 55 54 52 54 58 63 68 73
24 24 25 27 29 30 31 32 32 32 31 30 28 25 22 19 16 14 13 14 16 19 23 25 27 27 26 25 26 27 28 29 32 33 33 32 33 33 31 32 34 34 34 34 33 32 32 34 36 38 38 37 35 34 34 34 32 33 34 33 34 35 37 40 44 47 53 59 64 66 65 60 54 50 47 47 49 50 51 51 50 52 55 59 64
23 24 26 28 29 30 32 33 34 33 32 31 29 28 25 22 18 14 12 10 8 9 12 15 17 19 20 21 22 23 24 27 29 30 30 31 33 32 31 32 33 33 33 33 32 32 32 32 35 37 38 36 34 33 33 32 31 32 33 31 30 32 34 36 39 43 46 51 57 63 67 66 62 58 53 50 50 50 49 48 47 48 50 53 56
23 25 26 27 28 30 32 33 35 34 34 32 31 30 28 26 23 19 16 13 9 6 4 5 8 11 13 15 16 18 20 22 24 26 28 30 31 31 31 32 32 32 32 32 32 32 32 32 33 36 38 36 34 33 33 31 31 33 33 31 30 30 30 32 35 38 42 45 49 55 62 67 67 65 61 57 54 53 52 51 49 47 46 48 52
23 24 25 26 27 29 30 32 34 35 34 33 32 31 30 29 28 25 23 20 17 13 10 7 3 2 5 7 9 12 15 17 20 22 25 28 30 30 30 31 31 31 31 31 32 32 32 32 32 34 37 36 34 33 32 31 31 33 32 30 29 29 29 29 31 35 38 41 44 47 53 61 66 68 68 66 63 61 59 57 55 52 49 47 48
23 23 25 25 27 28 28 30 32 33 34 33 32 31 30 30 31 30 28 27 25 22 19 16 12 8 5 2 3 6 9 12 15 19 22 25 27 28 28 29 29 30 30 31 31 31 32 32 31 33 36 36 34 33 32 30 31 31 31 29 28 28 28 28 29 32 34 36 40 42 46 52 58 62 67 69 68 68 68 66 63 59 55 53 51
22 23 24 25 26 27 27 27 28 29 31 31 32 32 31 30 30 31 30 29 28 27 24 21 18 15 11 8 4 1 3 6 10 14 18 21 23 25 26 26 27 28 28 29 29 30 32 33 32 34 37 36 33 33 31 30 30 29 28 27 26 26 26 26 27 29 31 31 33 36 40 45 49 52 56 60 63 66 68 68 67 65 61 58 56
22 22 23 24 25 25 25 26 26 26 28 28 29 30 30 30 29 29 29 29 28 27 26 24 22 20 17 14 11 8 4 1 4 8 12 16 19 21 22 24 25 25 26 27 28 29 32 34 35 36 37 36 34 32 31 29 28 27 26 25 25 25 26 27 27 26 27 29 29 30 34 37 40 43 47 50 53 56 60 62 63 64 63 61 60
21 22 22 23 23 24 24 24 25 25 25 25 26 27 28 28 28 27 27 27 26 25 23 22 21 20 19 17 15 12 9 5 2 5 8 11 14 16 17 19 21 23 24 26 28 30 32 34 35 36 36 36 35 33 30 28 26 25 24 24 24 25 26 27 27 25 26 27 29 31 32 33 34 36 37 39 42 45 49 53 56 58 60 61 61
20 21 22 22 22 23 23 23 23 23 23 23 23 24 25 25 25 25 25 25 24 23 22 20 18 16 16 15 14 12 11 9 6 4 5 8 11 13 15 17 19 21 23 25 27 30 32 32 33 35 35 35 35 32 29 27 26 24 24 25 25 26 26 26 25 25 25 27 29 31 32 33 34 33 32 34 37 40 43 46 48 51 53 55 58
20 21 21 21 21 22 22 21 20 21 21 21 21 22 23 22 23 24 24 23 22 21 20 19 17 15 13 13 13 12 10 9 8 7 6 5 8 11 14 16 18 20 22 24 27 29 31 32 32 33 35 35 34 32 30 28 26 25 24 24 24 25 26 25 25 24 25 26 28 31 33 34 34 33 33 36 38 39 41 43 44 46 47 51 55
19 20 20 20 20 21 21 19 18 17 18 19 20 21 21 22 23 24 24 23 21 19 17 16 15 14 12 10 10 10 11 10 9 8 7 6 6 7 10 13 15 17 18 21 24 27 30 31 32 33 35 35 34 32 30 29 28 27 25 24 23 24 25 25 25 25 25 26 26 29 32 34 35 34 34 36 38 38 37 39 41 43 45 48 52
19 19 19 19 19 20 19 18 16 15 16 18 20 21 21 22 23 24 25 24 22 20 18 16 15 14 13 11 8 8 10 11 11 10 10 9 8 7 8 10 12 12 13 16 20 24 27 28 30 32 34 36 35 33 31 31 30 29 28 25 24 23 23 24 25 26 26 26 26 27 29 31 34 35 34 35 36 35 34 35 38 41 44 47 51
18 19 18 18 19 18 17 17 15 14 15 17 18 19 20 21 22 24 24 24 24 21 18 16 15 14 13 13 11 10 10 11 11 11 11 12 12 10 9 9 8 7 8 11 16 20 22 24 26 28 31 34 35 35 34 33 33 32 30 29 27 26 23 23 24 25 24 25 25 25 26 28 31 34 35 35 36 34 33 32 34 36 40 44 48
18 18 18 18 18 17 16 16 15 13 14 15 17 18 19 20 22 23 24 25 25 23 19 16 16 15 13 12 12 12 12 12 13 12 12 13 14 14 12 10 9 7 4 6 12 16 19 21 23 25 27 28 30 32 34 35 36 35 33 32 31 28 24 22 23 23 23 24 24 24 24 26 29 31 32 34 36 36 35 33 32 32 34 36 39
18 18 17 17 17 16 15 15 15 14 14 15 17 18 19 20 21 23 24 25 26 25 21 19 18 17 16 15 14 12 10 11 13 14 13 13 14 15 14 12 12 10 6 4 7 11 14 18 20 23 26 27 30 32 34 37 39 37 37 37 34 28 24 23 24 23 23 24 24 24 24 25 27 28 29 30 32 34 35 35 34 33 32 33 34
18 17 17 16 16 15 15 15 15 14 15 16 17 18 19 21 21 22 24 25 25 25 23 20 18 17 18 19 20 17 12 8 10 13 14 14 15 15 14 14 13 13 12 9 8 8 9 11 13 16 19 22 25 29 33 37 40 39 38 37 32 26 24 24 25 24 24 25 26 26 25 26 27 28 28 28 29 30 31 33 33 33 33 33 33
17 17 17 17 17 16 16 16 16 15 15 16 17 17 19 21 21 22 24 24 25 25 24 21 19 17 17 18 18 17 16 12 7 9 13 15 15 15 14 14 14 14 15 14 14 13 12 12 12 13 15 16 17 19 22 28 34 38 38 34 29 26 26 25 25 26 26 26 27 27 27 26 27 28 28 28 28 27 27 28 29 30 31 31 32
17 16 16 17 18 17 17 18 18 17 16 16 16 16 18 21 22 22 23 24 24 25 24 21 18 16 15 14 14 14 15 15 12 7 7 11 14 15 15 14 15 15 16 16 17 17 17 17 16 16 17 17 17 17 17 18 23 30 34 32 30 29 28 26 26 27 28 28 28 28 27 27 27 28 27 27 26 25 25 26 26 26 27 28 30
17 17 16 16 17 17 19 20 20 20 18 17 17 17 18 20 22 22 23 24 24 23 23 20 17 15 15 15 15 15 14 14 15 12 8 5 7 9 12 13 14 15 16 16 17 19 19 20 21 21 21 20 19 20 20 19 18 21 26 29 29 29 28 28 28 29 30 30 29 28 26 26 27 27 26 25 24 24 24 25 25 25 26 27 27
16 17 16 16 16 17 18 20 22 21 19 18 18 17 18 20 21 21 22 23 24 22 20 19 17 16 16 17 17 16 14 13 13 12 10 7 5 4 6 8 11 13 15 16 18 19 21 21 23 24 24 23 22 22 22 23 22 22 23 25 27 28 29 29 29 30 30 29 28 27 25 25 26 25 24 24 23 24 24 25 26 26 27 27 27
17 17 17 17 16 16 18 19 21 21 20 19 17 16 17 19 20 21 23 23 23 23 21 19 18 17 17 17 17 15 13 11 10 9 8 7 5 4 3 5 7 9 11 14 16 19 21 23 24 24 24 25 25 24 24 24 25 26 26 27 28 29 29 29 29 29 29 27 26 26 25 25 25 25 25 24 24 24 24 25 26 27 27 27 27
20 18 18 18 17 17 18 19 20 20 20 19 16 15 17 18 19 21 23 23 24 25 24 23 21 19 17 17 17 15 13 11 9 8 8 8 7 6 5 5 6 7 8 10 13 16 18 21 23 24 25 25 25 26 26 26 27 27 28 29 30 30 29 29 28 28 27 26 26 26 26 26 25 25 25 25 24 24 24 24 25 25 26 26 26
22 21 20 19 18 18 18 19 19 19 19 18 15 14 16 17 19 21 24 26 28 28 27 25 23 21 19 17 16 15 14 12 11 9 10 10 9 9 9 9 9 9 9 9 10 12 14 16 19 21 24 25 26 26 27 28 28 28 28 29 30 30 29 28 27 27 26 26 26 26 25 24 24 24 25 25 24 24 24 24 25 25 25 25 26
22 21 20 20 19 19 18 18 18 17 16 16 17 18 19 19 19 22 25 27 29 28 27 25 23 21 19 18 17 16 13 12 12 12 12 11 10 10 11 12 12 12 11 10 10 10 10 11 12 15 18 22 25 27 27 28 29 29 30 29 29 29 29 28 28 28 27 26 26 26 25 24 25 25 26 25 24 24 25 25 26 26 27 27 28
21 20 19 18 18 18 18 19 19 17 15 13 15 19 21 21 22 23 24 26 27 26 26 24 22 21 19 17 17 17 14 13 13 12 11 10 10 12 13 13 14 14 12 11 11 10 10 9 8 9 12 16 20 24 26 28 30 30 31 30 30 29 29 29 28 28 26 25 24 24 24 25 26 26 26 25 24 24 25 26 27 28 29 30 30
20 19 18 17 16 17 18 19 19 18 16 13 13 14 15 17 21 24 26 26 26 25 24 22 20 19 18 16 16 16 14 13 13 12 10 9 10 11 13 14 15 14 12 11 10 9 9 9 7 7 9 11 13 16 19 22 26 29 31 31 31 30 29 29 28 26 26 25 25 24 24 24 25 26 26 25 24 24 24 24 26 28 30 30 31
19 19 18 17 17 18 18 18 18 18 16 15 14 13 12 13 17 22 26 29 29 26 24 22 19 18 17 16 16 15 13 12 12 11 9 9 9 11 13 15 15 12 11 10 8 7 8 8 7 6 8 9 10 11 11 13 17 22 26 29 31 31 31 30 29 28 26 26 26 26 24 24 25 26 27 26 24 24 23 23 24 26 27 28 29
19 18 18 18 19 19 19 19 19 18 18 16 15 15 15 15 16 18 22 27 30 29 27 24 20 18 16 16 16 15 13 11 11 11 9 9 10 11 13 14 13 11 9 8 6 4 4 6 6 6 7 9 9 9 9 10 13 16 20 24 26 28 29 29 30 31 31 29 28 28 26 25 26 28 28 28 27 27 26 25 24 24 25 26 27
20 19 19 19 20 20 21 20 19 19 18 18 17 16 17 18 20 22 23 24 25 27 27 24 20 17 16 15 16 16 13 11 10 10 9 9 10 10 11 12 12 10 9 7 4 2 2 4 5 5 6 8 9 10 9 10 12 15 18 21 22 23 25 25 27 30 32 32 30 29 27 27 27 27 28 28 29 29 28 27 25 24 25 26 27
20 20 20 20 21 22 22 21 20 19 18 18 18 18 19 22 24 27 28 27 27 27 25 22 19 16 14 13 14 15 14 11 10 9 8 8 9 9 11 12 11 10 9 7 4 2 1 3 4 5 5 6 7 9 9 11 12 13 16 19 21 22 22 22 23 25 27 29 29 28 28 28 28 28 29 29 28 28 27 26 26 26 26 26 28
19 19 19 20 21 22 22 22 21 20 20 19 20 21 22 24 27 28 29 30 29 28 25 22 19 17 16 14 13 13 13 11 10 8 7 7 7 8 10 11 9 8 8 7 5 4 3 3 3 3 3 3 4 5 7 8 10 12 13 15 18 20 21 22 22 23 24 25 26 26 27 28 28 28 28 27 27 27 28 28 28 27 27 27 27
20 19 19 19 19 20 22 22 22 21 21 21 21 22 24 26 27 28 29 29 29 27 24 21 18 16 15 14 14 13 13 12 10 8 6 4 5 7 9 9 7 7 9 9 7 6 5 4 3 2 2 2 2 3 4 5 7 9 11 12 14 16 18 19 21 22 23 24 24 25 25 25 25 25 25 26 26 27 28 28 27 25 25 26 26
22 21 20 19 19 19 20 21 21 21 22 21 21 23 24 26 27 28 28 28 27 25 23 21 18 15 12 12 12 11 11 11 10 7 5 4 5 6 7 7 6 7 9 9 8 8 6 5 3 2 2 1 2 3 3 4 6 7 8 9 11 12 14 15 16 17 18 19 20 21 21 22 23 24 24 25 25 25 24 23 23 23 24 25 25
23 22 21 20 19 18 18 19 20 20 21 21 21 22 24 25 26 26 26 26 25 23 22 20 17 15 12 11 10 9 9 9 8 6 4 3 3 4 5 5 5 6 7 9 9 8 8 7 5 4 2 2 2 3 3 5 6 7 7 8 9 9 11 12 13 13 14 14 15 16 16 17 18 19 20 20 21 20 20 19 20 20 21 22 21
24 22 21 20 19 18 17 18 18 19 20 20 21 22 23 23 24 24 25 25 23 22 21 19 17 14 12 10 9 8 8 8 8 5 3 2 2 3 5 4 3 4 6 7 8 8 8 7 6 4 3 3 2 3 3 5 6 6 7 7 7 7 8 9 10 10 11 11 12 12 12 12 12 13 13 14 14 15 16 16 17 18 18 18 18
27 25 23 21 19 18 17 17 17 18 18 19 20 21 21 22 22 23 23 23 21 21 20 20 18 17 14 12 10 9 8 7 7 5 2 2 3 3 4 4 3 3 4 6 6 6 6 5 4 3 3 3 4 4 4 5 6 7 8 8 8 7 7 7 7 8 9 10 10 10 10 10 9 9 9 10 11 13 14 14 15 15 15 15 15
30 28 25 23 21 19 17 16 17 17 18 19 19 20 20 20 21 21 21 20 19 19 19 20 20 19 17 14 12 11 9 7 6 4 3 3 3 4 5 5 2 1 2 4 5 5 5 4 4 4 4 4 5 5 6 6 7 8 9 10 10 10 10 10 10 10 11 11 11 10 10 9 9 9 10 11 11 12 12 12 12 12 13 13 13
30 29 28 26 24 21 19 18 17 17 17 18 18 19 19 19 19 20 19 18 17 17 17 18 19 19 18 16 14 12 10 8 6 5 5 5 5 5 6 5 3 0 2 2 4 4 4 4 4 4 4 5 6 6 7 8 8 8 9 10 10 11 12 12 12 11 11 11 11 10 10 10 10 10 11 11 12 12 11 11 11 11 12 12 13
29 29 29 27 26 24 23 21 20 19 18 18 18 18 18 18 18 18 17 16 15 15 16 17 18 18 18 16 14 12 10 8 6 6 6 6 6 6 6 5 4 1 2 2 3 3 3 3 3 3 4 6 7 7 8 8 8 8 8 8 9 10 11 12 12 12 12 11 11 10 10 11 11 11 11 11 11 11 11 11 11 11 11 12 12
28 28 28 28 27 26 25 23 22 21 19 18 17 16 17 17 17 16 15 14 14 14 15 16 16 16 17 16 14 12 11 9 8 7 6 6 7 7 6 5 4 2 1 2 2 2 2 2 3 3 4 6 7 8 9 9 9 9 8 7 7 8 9 10 11 11 11 11 11 11 11 11 10 10 10 10 10 10 10 10 10 10 10 10 10
26 27 27 27 27 26 26 25 23 22 21 19 18 17 16 16 16 15 15 14 14 13 14 14 14 14 15 14 14 13 11 10 9 8 7 7 7 7 6 6 4 2 2 1 2 2 1 1 2 3 4 5 7 9 10 10 11 11 10 9 8 8 8 9 9 9 9 9 10 10 10 10 9 9 9 9 9 9 9 9 9 9 9 9 10
24 25 26 26 26 26 25 25 24 23 22 21 20 19 18 17 16 15 15 14 14 13 13 13 13 13 13 12 12 12 11 10 9 8 7 7 7 6 6 5 4 3 3 2 1 1 1 1 2 3 4 6 7 8 9 9 9 9 10 9 9 9 8 8 8 8 8 7 7 7 8 7 7 7 7 7 7 7 7 8 8 9 10 11 12
24 23 24 24 25 25 24 24 23 23 22 22 21 21 20 19 17 15 14 14 13 13 13 13 13 13 13 11 10 10 9 9 9 9 8 8 7 6 6 5 5 4 4 3 2 1 1 1 2 3 5 6 8 8 8 8 7 7 8 8 8 8 8 8 7 7 7 7 6 6 6 6 6 6 6 7 7 8 8 9 10 11 13 14 15
24 23 23 22 23 23 23 23 22 22 22 21 21 20 19 18 17 16 14 13 12 12 12 12 13 13 14 13 11 10 8 7 7 7 7 8 7 7 6 6 5 4 4 3 3 2 1 1 0 1 3 5 7 8 8 7 7 6 6 6 7 7 7 6 6 6 5 5 5 5 5 5 5 6 7 8 9 10 11 12 13 14 15 16 17
25 24 23 23 22 22 22 23 23 22 22 21 20 19 18 17 16 15 14 13 12 12 11 12 12 13 13 13 13 11 10 8 6 5 5 5 6 6 6 6 6 5 4 4 3 3 2 1 1 1 2 3 6 7 8 7 7 6 6 5 5 5 5 4 4 4 4 5 5 6 6 7 8 9 10 11 12 13 14 14 15 15 16 16 16
26 26 25 24 23 23 22 21 21 21 21 20 20 19 18 17 16 15 14 13 12 12 12 12 12 12 12 12 11 11 10 9 8 7 6 5 5 5 6 6 6 6 6 5 5 4 4 3 3 3 3 4 5 7 8 8 8 7 7 6 6 6 6 6 6 7 7 8 8 9 10 11 12 13 13 14 14 14 14 14 14 14 15 16 16
Wind_Direction
326 325 324 324 325 325 325 324 321 317 311 304 297 289 282 275 269 264 260 256 253 252 251 251 253 254 254 254 255 255 255 253 252 252 250 246 243 241 241 241 242 242 241 240 241 243 243 242 240 240 241 242 243 244 244 244 244 241 240 237 235 237 239 238 237 233 228 227 228 229 230 229 229 228 226 225 223 222 222 222 221 221 220 220 220
333 333 335 336 337 338 339 338 336 332 326 317 309 299 289 281 274 267 261 257 255 253 253 253 253 254 255 255 255 254 254 253 252 251 248 243 240 239 238 240 241 240 240 240 241 243 245 244 241 238 238 239 241 242 241 241 244 243 242 239 236 235 238 240 238 235 232 229 228 229 229 229 229 227 226 226 223 222 222 222 222 221 220 220 221
343 346 348 349 350 350 350 349 347 343 338 330 322 313 303 293 283 275 267 261 257 255 255 254 254 254 254 254 254 253 253 252 250 248 244 241 240 238 235 237 239 239 239 240 241 242 243 244 241 236 234 236 238 240 240 239 243 245 244 243 240 237 237 239 240 238 236 233 231 230 229 228 227 226 225 224 223 221 220 221 222 222 221 221 221
354 355 357 358 359 359 358 358 356 354 352 347 340 330 320 308 297 287 277 267 260 257 256 255 254 254 254 254 254 252 251 249 246 244 241 240 240 238 234 233 236 236 237 240 240 240 241 242 241 235 231 232 234 237 238 240 243 245 245 245 243 240 238 238 240 239 238 237 235 233 232 229 227 225 224 224 224 224 222 220 220 221 222 222 222
1 3 6 7 8 7 6 6 5 3 2 360 356 349 338 325 312 302 292 280 268 260 256 255 255 256 256 256 256 253 250 245 240 239 239 238 238 236 233 232 232 232 235 239 239 239 241 243 240 234 230 230 232 234 237 240 243 243 244 245 244 242 241 240 240 239 239 239 238 237 236 234 232 228 225 224 224 226 227 225 222 221 221 221 222
9 12 15 15 15 14 13 12 12 10 9 7 5 3 358 349 336 323 313 301 285 271 263 259 258 257 256 254 253 251 247 241 237 237 236 236 235 234 232 230 230 231 234 238 238 238 242 244 240 233 228 228 231 233 235 238 241 242 244 246 245 243 242 241 240 239 238 239 239 240 239 239 239 236 233 230 228 227 228 228 227 226 224 222 221
19 21 22 22 21 20 20 18 17 15 14 14 13 13 13 11 6 358 350 341 323 296 278 267 262 259 255 253 249 246 242 238 236 236 235 232 232 232 230 228 229 231 235 237 236 236 238 242 240 231 224 225 228 229 232 235 238 242 244 246 246 245 243 241 241 240 239 238 238 240 241 241 242 243 242 240 237 234 233 232 231 230 229 228 226
26 27 27 27 27 26 26 24 23 21 20 20 20 21 23 24 25 25 24 21 17 3 329 287 270 262 257 253 249 246 241 236 234 233 231 230 231 231 228 228 229 232 236 236 234 234 235 238 238 230 223 224 226 227 230 232 235 239 243 245 247 246 243 242 240 239 239 239 238 238 239 240 242 243 244 245 243 241 239 237 236 234 233 232 231
30 31 30 30 29 29 29 28 27 26 26 26 27 28 32 35 36 39 42 44 47 47 48 47 25 302 268 254 247 245 242 237 233 229 227 227 229 231 229 228 230 233 236 236 232 231 234 236 235 228 222 223 226 228 228 229 232 236 242 246 247 243 240 240 241 239 238 239 238 238 237 237 238 240 242 244 245 246 245 244 243 242 239 237 234
31 31 30 29 28 28 29 28 29 29 29 29 30 32 37 41 44 47 48 51 53 54 56 57 57 53 37 349 263 250 244 236 232 228 227 227 229 232 233 233 234 236 237 236 232 229 232 234 232 226 221 221 225 227 226 227 231 236 243 247 246 241 237 238 241 242 240 239 237 237 238 237 236 236 238 240 242 245 246 247 247 247 245 243 240
30 29 27 28 27 27 26 26 28 29 30 31 32 33 36 40 44 47 49 51 52 52 52 52 52 53 49 44 39 339 248 238 234 230 230 231 233 235 237 237 239 239 238 236 232 229 231 231 229 226 222 218 220 223 223 226 231 237 243 246 242 237 233 234 239 241 241 242 239 238 238 238 237 237 237 237 238 240 242 244 246 246 245 245 243
26 25 25 27 27 25 25 24 24 26 28 30 32 33 35 37 40 42 43 46 48 49 49 48 46 45 44 44 42 38 31 300 247 240 238 238 239 241 241 241 240 237 235 234 231 229 230 230 228 226 222 217 218 222 223 226 231 236 242 242 238 233 230 231 236 238 239 241 238 235 238 241 241 239 238 236 235 237 238 240 241 242 243 244 244
22 22 22 23 23 23 23 24 24 23 24 27 30 32 35 37 39 39 39 40 41 43 44 44 44 42 38 37 38 37 31 19 323 258 248 244 243 243 242 241 240 238 236 236 234 231 230 230 230 227 221 217 220 223 223 225 230 235 238 239 238 235 231 229 232 235 238 238 234 230 232 239 243 244 243 241 238 237 236 237 238 240 241 242 243
18 17 17 18 18 17 19 23 26 26 25 26 27 28 30 31 32 33 34 35 34 34 33 34 36 37 34 29 29 34 33 21 4 330 281 255 246 243 241 240 240 241 241 240 238 235 231 229 228 225 219 218 222 222 221 223 228 230 234 238 239 238 234 230 230 233 236 236 233 230 229 233 239 243 244 244 241 238 236 236 237 238 240 241 241
16 15 15 13 12 12 14 20 27 31 30 29 28 27 26 25 24 23 23 22 22 22 21 21 20 22 26 20 13 13 15 11 3 354 335 297 264 250 245 243 241 242 244 243 241 239 234 228 225 221 217 217 220 220 219 221 224 228 232 235 237 236 234 232 231 233 237 238 236 233 231 231 234 235 237 238 237 236 235 235 235 237 238 239 239
14 13 12 9 7 8 11 18 28 34 34 29 25 24 23 22 23 21 17 13 10 7 4 3 2 3 7 8 360 348 340 338 341 344 342 330 303 269 254 249 244 242 244 243 240 237 234 228 222 219 216 215 216 217 218 221 225 228 231 232 234 235 232 232 233 233 236 239 239 237 234 233 233 232 230 231 232 232 232 233 234 235 236 236 236
9 8 7 6 5 7 12 19 26 33 35 28 21 19 20 21 21 20 17 13 8 2 356 351 349 346 341 340 338 327 315 311 311 315 318 318 315 302 281 265 253 246 244 243 237 231 230 227 221 217 215 214 214 214 218 224 228 232 233 232 232 233 231 229 232 234 236 239 241 241 239 237 236 234 231 228 227 226 227 230 233 235 235 235 235
3 3 3 4 6 8 13 17 20 26 30 24 18 17 16 16 17 18 19 16 11 7 2 354 349 342 332 324 318 308 299 296 294 292 293 295 296 297 296 289 285 277 259 245 236 226 222 221 218 216 215 214 214 214 218 225 230 234 236 234 232 232 230 228 230 233 236 239 241 242 242 241 239 238 235 230 227 223 222 224 229 231 233 235 236
359 1 2 4 5 9 13 13 14 18 20 16 12 12 11 11 13 17 18 15 12 10 10 4 357 351 343 332 319 305 293 287 286 282 277 277 279 281 284 286 291 295 275 234 229 223 219 216 216 216 215 215 216 218 221 227 232 235 236 235 233 231 229 230 234 236 237 240 243 244 243 241 239 239 238 233 229 227 224 221 220 223 227 231 233
359 0 2 3 5 7 10 11 11 14 14 9 5 5 6 7 11 15 14 12 10 10 11 8 3 359 355 349 343 333 312 288 280 276 270 267 269 273 275 274 277 281 281 248 226 220 218 218 219 220 221 222 224 226 228 230 233 234 233 233 233 231 229 232 236 238 240 241 243 244 243 239 236 237 238 235 231 228 227 224 220 218 221 224 227
0 1 2 5 7 8 10 11 9 10 9 5 0 0 2 3 7 11 10 8 8 9 9 7 4 0 353 349 349 350 344 320 285 273 268 264 262 265 267 267 267 268 269 266 256 240 227 223 223 224 226 227 228 231 234 235 235 234 232 232 232 229 229 232 234 236 238 240 242 243 241 238 234 233 234 235 233 230 228 227 225 222 222 222 224
2 2 3 6 8 10 12 11 8 7 5 1 358 359 1 2 4 7 6 5 5 6 7 6 3 359 354 350 352 356 356 354 330 280 267 264 263 264 266 264 262 261 260 259 259 257 250 243 236 230 231 233 231 234 239 240 238 235 233 233 231 227 226 230 232 234 237 239 241 242 240 238 235 232 231 232 233 231 230 229 229 228 226 226 225
4 4 5 4 4 4 7 8 8 7 4 359 357 1 4 4 2 2 2 2 1 1 4 5 1 359 1 4 8 11 9 10 9 347 291 270 267 266 265 261 258 257 256 254 254 253 251 249 247 242 239 237 235 239 244 243 239 235 232 230 227 225 226 228 229 231 234 236 239 240 238 237 236 233 231 230 230 230 230 230 231 231 230 229 229
1 2 3 2 0 359 359 1 5 5 2 358 358 2 6 4 359 358 357 356 355 356 359 0 358 360 10 16 18 20 21 21 22 19 9 335 292 275 269 264 260 256 253 249 247 247 247 246 245 245 244 240 235 235 236 233 231 230 227 225 224 223 225 226 226 228 231 234 237 238 236 235 235 235 233 231 228 228 228 229 229 230 231 231 230
354 356 357 357 359 358 355 355 358 358 356 354 355 359 2 360 357 356 354 352 352 352 353 356 359 4 12 15 15 17 20 23 26 27 24 20 2 313 283 270 265 261 257 250 244 241 241 240 239 239 240 239 235 231 227 224 221 218 217 219 221 222 224 226 226 229 233 236 237 238 235 233 233 233 233 231 228 226 225 226 227 229 230 230 230
350 349 349 351 354 357 354 352 352 352 350 350 353 356 357 355 355 355 352 351 354 356 355 359 4 8 12 12 10 9 12 15 20 22 21 17 7 343 311 281 269 264 260 255 250 243 240 239 239 238 237 236 235 231 227 223 220 217 214 214 216 219 224 227 228 231 234 236 237 236 233 230 228 229 230 231 229 226 225 225 226 228 229 231 231
346 344 343 344 346 350 352 351 350 348 346 347 351 353 351 350 350 351 351 352 356 359 0 2 3 4 7 8 5 1 0 0 1 5 8 4 354 346 337 317 297 282 269 260 255 249 245 242 241 240 238 236 233 231 229 226 224 221 219 218 219 221 224 228 231 234 235 235 236 235 232 229 228 228 229 231 231 230 229 228 228 229 229 230 231
342 339 338 338 339 344 348 350 349 347 345 346 348 350 351 348 346 349 353 355 356 357 358 358 357 355 356 359 359 358 357 353 350 353 357 354 347 342 339 333 324 313 298 283 267 254 247 243 240 240 239 237 235 232 229 227 226 224 223 224 226 227 227 228 231 232 232 231 231 233 232 230 230 231 233 233 233 234 235 234 234 234 233 233 233
341 337 334 333 335 338 343 346 348 347 347 347 343 341 343 346 347 352 358 357 354 352 350 350 350 349 348 348 349 351 353 351 348 350 350 347 341 339 338 335 330 324 315 305 291 272 255 244 239 239 238 238 237 234 230 227 225 224 224 224 225 226 227 226 227 229 230 229 229 230 230 229 231 234 236 237 236 236 238 240 240 240 240 239 239
345 340 335 332 333 336 339 342 345 346 349 351 345 339 340 344 347 351 356 356 353 349 345 343 342 342 341 339 337 339 342 343 342 343 344 342 339 339 339 335 331 328 321 312 301 284 267 253 243 239 239 238 237 236 233 229 225 222 221 221 222 223 224 224 225 226 228 229 231 232 232 230 231 234 236 236 236 237 239 242 244 244 244 243 243
349 348 342 338 337 338 339 340 342 344 345 346 346 342 341 344 345 345 347 348 349 348 344 338 334 333 334 333 329 327 327 328 328 329 334 340 338 336 336 334 332 330 326 315 302 282 264 252 244 241 240 239 239 238 235 230 226 222 219 218 219 221 223 225 226 226 226 228 231 232 232 230 232 235 237 237 238 238 239 242 246 248 247 246 244
352 354 352 349 346 344 343 341 341 341 339 336 335 333 333 338 341 341 341 342 343 344 343 336 328 323 324 324 321 319 316 315 314 315 321 329 330 332 335 334 332 333 331 319 302 278 253 240 235 236 233 231 236 239 233 224 218 218 219 219 218 220 223 226 227 226 226 228 230 232 233 233 233 237 242 246 246 243 241 243 246 249 249 247 245
350 355 356 354 351 348 346 343 339 337 334 330 328 328 330 332 334 336 339 340 340 340 340 337 328 318 311 309 311 312 311 308 306 306 310 318 324 330 333 332 332 339 341 328 309 283 241 224 224 231 227 223 225 228 228 218 206 205 212 216 217 219 222 223 224 223 223 226 230 233 234 232 230 232 239 246 249 249 250 251 250 248 247 245 242
344 348 350 349 347 344 342 341 338 337 336 334 332 332 333 333 333 334 337 340 340 339 337 335 329 318 305 297 297 301 304 302 298 297 305 314 320 326 331 332 338 351 354 341 324 295 209 199 200 206 213 217 218 216 216 214 207 205 207 209 212 217 220 221 220 220 221 223 226 228 228 227 227 230 236 243 248 252 255 256 253 252 250 245 239
338 338 339 340 340 339 338 337 337 339 340 338 336 336 335 336 337 337 339 341 343 342 339 337 334 325 311 296 287 287 292 296 296 298 306 313 317 328 339 342 346 358 5 3 8 42 147 174 173 176 189 208 216 215 210 207 205 206 207 208 211 215 216 215 215 216 218 220 223 224 225 227 231 236 240 244 247 249 251 251 252 254 252 245 238
334 332 332 333 334 335 335 336 336 338 339 339 339 339 338 338 339 340 342 343 344 344 343 342 339 333 326 316 303 293 293 300 304 304 305 309 321 342 351 348 350 8 21 24 36 65 93 121 139 158 186 208 220 223 220 214 211 210 209 210 212 213 213 214 216 217 218 221 225 227 229 231 234 236 239 239 239 239 240 244 248 250 247 240 236
334 331 330 329 330 331 333 335 335 336 336 337 338 339 339 339 340 341 343 344 344 345 345 345 342 335 326 320 314 306 301 302 304 302 301 318 347 360 357 351 359 26 38 39 46 66 89 109 125 151 188 207 218 222 222 221 220 218 215 213 212 212 213 216 218 219 220 221 223 225 227 227 228 229 231 233 234 236 240 242 242 239 236 234 232
338 333 330 329 328 329 329 331 332 332 332 334 336 337 338 340 341 342 343 344 346 347 347 347 345 342 335 326 319 314 308 307 309 313 323 343 359 2 358 359 16 42 52 53 52 54 65 79 87 100 135 169 190 193 198 209 217 219 216 213 211 210 211 213 215 217 219 221 222 223 224 225 226 226 226 228 230 232 234 234 231 229 228 230 230
344 338 332 328 327 327 327 327 328 329 331 332 333 336 338 340 341 342 344 346 348 350 350 349 349 348 347 342 334 325 317 314 316 316 313 320 344 359 1 9 34 57 63 67 64 56 54 55 54 59 76 102 151 177 189 199 205 209 212 213 214 214 214 214 215 215 216 219 222 224 225 225 224 224 223 223 223 222 223 224 225 226 226 227 228
357 349 340 331 326 325 327 328 330 332 332 331 332 335 339 341 342 344 347 349 351 353 353 354 354 353 351 348 341 330 321 319 318 310 291 298 342 7 8 14 45 71 74 77 77 70 61 54 48 51 64 78 105 142 169 181 186 192 197 199 202 206 208 209 209 209 211 214 216 216 215 214 213 214 216 217 217 218 218 218 220 220 221 222 222
8 3 355 345 334 328 329 333 335 335 335 335 336 337 339 342 345 348 350 352 355 357 358 359 0 359 356 355 351 345 340 334 327 317 308 331 350 4 12 15 33 78 86 88 88 84 78 73 70 74 85 97 108 120 136 151 160 165 166 164 163 165 168 171 177 182 185 188 189 189 187 187 189 194 201 207 211 212 211 211 211 211 212 213 215
12 10 7 0 351 342 337 336 338 339 340 340 340 339 340 344 348 351 353 355 359 2 4 6 7 5 2 0 358 356 356 355 350 348 0 7 4 6 11 13 20 83 112 108 104 98 92 92 96 99 104 112 120 126 131 137 145 151 151 148 148 150 152 153 156 160 162 163 164 164 164 167 173 180 188 193 196 197 199 202 204 206 206 205 206
12 11 11 8 3 357 351 346 345 345 344 343 343 343 345 348 351 352 354 357 2 6 8 10 12 11 8 6 5 5 8 12 14 14 14 14 10 5 5 12 24 134 182 145 125 114 102 93 97 109 118 124 129 134 136 137 142 149 151 149 151 153 152 151 150 150 151 151 152 155 160 165 172 177 181 184 185 184 185 190 194 198 200 200 201
10 11 11 10 8 6 1 356 353 351 349 350 351 350 350 351 353 353 354 358 3 7 10 13 15 16 16 14 12 11 12 17 24 24 18 13 10 5 4 16 38 94 192 176 145 135 122 107 107 118 127 131 133 136 137 137 140 145 148 150 153 153 151 149 149 148 149 150 151 156 161 166 168 171 173 176 178 179 181 185 190 193 196 199 203
8 8 9 9 9 8 6 2 359 356 354 355 355 353 352 353 353 352 354 358 2 7 11 13 15 19 21 21 19 16 15 16 20 24 22 16 12 8 10 22 44 84 156 173 165 158 147 131 121 119 125 130 131 130 129 127 125 125 127 131 140 145 146 147 148 149 151 154 156 160 163 165 168 170 172 174 178 181 184 189 193 197 202 206 212
5 6 7 7 7 7 7 6 3 1 358 356 353 352 353 355 355 354 354 356 359 4 10 13 14 17 22 25 25 22 19 16 14 14 15 15 13 15 19 27 42 71 111 143 160 164 165 161 135 126 132 135 132 131 131 130 128 128 128 129 133 136 138 140 142 145 149 154 156 159 162 165 168 172 176 180 184 188 192 199 206 212 219 225 232
1 3 4 4 4 4 5 5 4 3 1 359 356 354 353 355 356 356 354 353 353 356 3 9 11 13 19 26 28 26 24 20 14 9 8 8 11 14 19 26 39 59 75 94 125 148 170 184 169 154 154 153 149 148 150 149 147 146 144 143 143 144 143 145 147 149 153 156 159 163 167 170 175 183 189 196 202 210 216 224 230 237 242 246 250
359 359 360 1 1 1 1 1 1 2 1 0 359 357 355 355 355 356 354 352 350 350 356 2 4 5 9 16 22 26 27 24 18 13 8 5 5 6 7 12 24 36 45 50 56 66 111 167 171 169 171 172 170 171 173 172 168 164 161 160 161 160 159 161 163 165 168 172 175 179 184 191 198 206 214 223 231 237 242 247 251 255 257 260 262
0 358 357 356 357 357 358 358 359 359 359 359 359 358 357 355 355 354 353 351 348 347 350 354 356 355 355 356 0 8 16 21 22 19 11 4 359 355 354 356 2 9 18 22 17 13 13 20 117 172 181 183 185 188 191 189 183 176 174 173 173 172 173 174 175 177 183 188 195 204 213 222 232 240 246 251 255 258 260 262 263 264 265 266 266
0 0 359 356 354 353 354 355 356 357 357 356 356 357 357 356 354 353 352 351 348 346 345 345 346 347 346 344 343 344 347 353 2 7 6 2 356 349 345 344 344 346 347 347 341 337 336 335 318 256 219 206 203 205 207 202 195 193 195 195 193 195 197 201 205 212 220 229 237 243 249 255 258 261 263 264 264 264 265 264 264 264 265 265 266
358 359 360 359 356 354 351 350 351 353 354 354 354 354 354 354 354 352 350 348 346 343 339 337 337 338 339 340 340 337 336 336 338 339 341 342 341 338 336 333 331 329 328 324 321 314 305 296 281 260 246 234 226 224 223 219 216 216 219 222 224 227 230 234 238 241 245 250 253 256 260 261 261 261 262 261 261 261 261 262 262 263 264 266 268
Height
2862 2858 2855 2851 2848 2845 2842 2839 2836 2832 2829 2826 2823 2821 2819 2818 2819 2819 2820 2821 2822 2823 2825 2828 2830 2833 2836 2839 2842 2844 2847 2850 2853 2855 2857 2859 2863 2865 2867 2869 2870 2872 2875 2877 2879 2881 2882 2884 2887 2889 2891 2893 2896 2898 2900 2902 2904 2905 2907 2909 2912 2914 2918 2920 2923 2928 2933 2937 2941 2945 2947 2951 2955 2960 2964 2968 2971 2976 2980 2984 2988 2992 2997 3002 3007
2859 2856 2853 2850 2847 2844 2840 2837 2833 2829 2826 2822 2819 2816 2814 2813 2812 2812 2813 2814 2816 2817 2818 2821 2824 2827 2830 2832 2835 2838 2841 2844 2847 2849 2851 2854 2857 2860 2862 2864 2865 2867 2869 2872 2874 2876 2877 2879 2881 2884 2886 2888 2891 2893 2896 2898 2899 2900 2902 2904 2906 2909 2911 2914 2918 2922 2926 2930 2934 2937 2940 2944 2948 2953 2958 2961 2965 2968 2970 2975 2980 2984 2989 2994 2998
2857 2855 2852 2849 2846 2843 2839 2835 2831 2828 2824 2820 2816 2813 2810 2808 2807 2807 2807 2808 2810 2812 2814 2816 2819 2821 2824 2827 2829 2832 2835 2838 2841 2843 2845 2849 2852 2855 2857 2858 2860 2862 2864 2866 2869 2871 2872 2874 2876 2879 2881 2884 2887 2889 2892 2893 2894 2896 2898 2899 2901 2904 2906 2908 2911 2916 2920 2924 2927 2930 2934 2937 2941 2946 2951 2955 2958 2960 2963 2967 2971 2976 2981 2985 2990
2856 2854 2851 2848 2845 2841 2838 2834 2830 2826 2822 2818 2814 2811 2808 2805 2804 2803 2803 2804 2805 2808 2810 2812 2814 2816 2819 2822 2824 2827 2829 2832 2835 2838 2840 2844 2847 2849 2851 2853 2855 2857 2859 2861 2864 2866 2867 2869 2871 2873 2876 2879 2882 2885 2887 2889 2891 2892 2893 2895 2897 2899 2901 2903 2905 2909 2914 2917 2921 2924 2928 2931 2935 2939 2942 2946 2949 2953 2957 2960 2964 2968 2973 2976 2981
2856 2853 2850 2847 2843 2840 2836 2833 2829 2824 2820 2816 2813 2809 2806 2804 2802 2800 2799 2800 2801 2804 2806 2808 2810 2813 2815 2818 2820 2822 2824 2827 2830 2832 2835 2838 2841 2843 2846 2848 2850 2852 2854 2857 2859 2861 2863 2864 2866 2869 2872 2875 2878 2881 2883 2885 2887 2888 2889 2891 2893 2895 2897 2898 2900 2903 2906 2910 2914 2918 2922 2924 2928 2931 2934 2938 2942 2946 2950 2953 2957 2962 2965 2969 2972
2855 2852 2849 2846 2842 2839 2835 2832 2828 2824 2820 2816 2812 2809 2806 2803 2801 2799 2798 2798 2799 2801 2803 2805 2807 2809 2812 2814 2815 2817 2819 2822 2824 2827 2830 2833 2835 2838 2841 2843 2845 2848 2850 2852 2854 2857 2858 2860 2861 2864 2867 2871 2874 2876 2879 2881 2883 2884 2885 2887 2889 2891 2892 2893 2895 2897 2899 2903 2907 2910 2914 2918 2921 2925 2928 2932 2935 2938 2942 2946 2950 2954 2959 2962 2966
2855 2852 2849 2846 2843 2840 2836 2832 2828 2824 2820 2817 2813 2809 2806 2803 2801 2799 2798 2797 2798 2799 2801 2803 2805 2806 2808 2810 2811 2813 2815 2817 2820 2822 2826 2828 2830 2833 2836 2838 2841 2843 2845 2848 2850 2852 2854 2855 2857 2860 2863 2866 2869 2872 2875 2877 2880 2881 2882 2883 2885 2886 2887 2889 2891 2892 2894 2897 2900 2903 2906 2911 2915 2918 2922 2925 2928 2931 2935 2939 2943 2948 2952 2956 2960
2856 2853 2850 2847 2844 2841 2837 2834 2830 2826 2822 2819 2815 2811 2808 2805 2802 2800 2799 2798 2798 2799 2800 2802 2803 2804 2806 2807 2808 2810 2811 2814 2816 2819 2821 2824 2826 2829 2831 2834 2836 2839 2841 2843 2845 2847 2849 2851 2853 2856 2859 2863 2866 2868 2871 2874 2876 2877 2878 2880 2881 2882 2883 2884 2886 2888 2890 2892 2894 2896 2900 2904 2907 2910 2914 2917 2920 2924 2930 2934 2938 2942 2946 2950 2954
2856 2854 2851 2848 2845 2842 2839 2836 2832 2829 2825 2822 2818 2814 2811 2808 2806 2803 2802 2801 2801 2801 2801 2802 2802 2803 2804 2805 2807 2808 2810 2812 2813 2815 2818 2820 2822 2825 2827 2830 2832 2834 2837 2839 2841 2843 2845 2847 2850 2853 2856 2859 2862 2864 2867 2869 2871 2873 2874 2875 2877 2878 2879 2880 2881 2883 2885 2887 2889 2891 2893 2896 2900 2904 2907 2909 2914 2921 2926 2929 2932 2936 2940 2943 2946
2857 2855 2852 2850 2847 2844 2841 2838 2835 2832 2828 2825 2822 2818 2815 2812 2810 2808 2806 2805 2804 2804 2803 2803 2803 2804 2804 2805 2806 2807 2808 2810 2811 2813 2815 2818 2820 2822 2824 2827 2829 2831 2833 2835 2837 2839 2841 2843 2846 2849 2852 2855 2858 2860 2863 2865 2867 2868 2870 2871 2873 2874 2875 2876 2877 2879 2880 2882 2884 2886 2888 2890 2894 2898 2901 2906 2912 2915 2918 2921 2925 2929 2933 2936 2939
2858 2856 2854 2851 2848 2845 2843 2840 2837 2834 2831 2828 2825 2822 2819 2817 2814 2812 2811 2809 2808 2807 2807 2806 2806 2806 2806 2806 2807 2807 2808 2809 2811 2812 2814 2816 2818 2820 2822 2824 2825 2827 2829 2831 2833 2835 2837 2839 2842 2845 2848 2851 2854 2856 2859 2861 2863 2865 2866 2867 2868 2869 2871 2872 2874 2875 2876 2878 2880 2882 2883 2885 2889 2893 2896 2901 2906 2907 2910 2915 2918 2921 2924 2928 2933
2859 2857 2855 2852 2849 2847 2844 2842 2839 2836 2834 2831 2828 2825 2823 2820 2818 2816 2815 2813 2812 2811 2810 2809 2809 2808 2808 2808 2808 2808 2809 2809 2810 2812 2813 2815 2816 2817 2819 2821 2822 2824 2825 2827 2829 2831 2833 2835 2838 2840 2843 2847 2850 2852 2855 2857 2859 2861 2862 2863 2864 2866 2867 2869 2870 2872 2873 2874 2876 2878 2879 2882 2885 2887 2890 2895 2899 2901 2905 2908 2910 2913 2918 2922 2926
2861 2859 2856 2854 2851 2849 2846 2843 2841 2838 2836 2833 2831 2828 2826 2823 2821 2820 2818 2817 2815 2814 2813 2812 2811 2811 2810 2810 2809 2809 2809 2810 2810 2811 2812 2813 2814 2815 2817 2818 2819 2821 2822 2823 2825 2826 2828 2830 2833 2836 2839 2843 2846 2848 2851 2854 2856 2857 2859 2860 2861 2862 2863 2865 2866 2868 2869 2871 2872 2874 2876 2879 2881 2883 2886 2890 2893 2895 2898 2901 2903 2907 2912 2916 2920
2862 2860 2858 2855 2853 2850 2848 2845 2842 2840 2838 2835 2833 2831 2828 2826 2824 2822 2821 2819 2818 2816 2815 2814 2814 2813 2812 2811 2811 2811 2811 2810 2810 2811 2811 2812 2812 2813 2815 2816 2817 2818 2819 2820 2821 2822 2824 2826 2828 2832 2835 2839 2842 2845 2848 2850 2852 2854 2855 2856 2857 2858 2860 2861 2863 2864 2866 2867 2869 2871 2873 2875 2877 2880 2883 2885 2887 2889 2892 2895 2899 2903 2906 2910 2913
2863 2861 2859 2856 2854 2852 2849 2847 2844 2842 2840 2837 2835 2833 2831 2829 2827 2825 2823 2821 2820 2818 2817 2816 2815 2814 2813 2813 2812 2812 2811 2811 2811 2811 2811 2811 2811 2811 2812 2813 2814 2815 2815 2816 2817 2818 2820 2821 2824 2828 2831 2835 2838 2841 2844 2846 2848 2850 2851 2852 2854 2855 2856 2858 2860 2861 2862 2864 2866 2867 2870 2872 2874 2876 2878 2880 2882 2884 2887 2890 2893 2896 2899 2902 2905
2864 2862 2860 2857 2855 2853 2851 2848 2846 2844 2841 2839 2837 2835 2833 2831 2829 2827 2825 2823 2821 2820 2818 2817 2816 2815 2814 2813 2813 2812 2811 2810 2810 2810 2810 2810 2810 2810 2810 2811 2811 2811 2812 2812 2813 2814 2815 2817 2820 2824 2827 2831 2835 2838 2840 2843 2844 2845 2847 2849 2850 2851 2853 2855 2856 2858 2859 2861 2862 2864 2866 2868 2870 2872 2874 2876 2878 2880 2882 2884 2886 2889 2892 2894 2897
2865 2863 2860 2858 2856 2854 2852 2849 2847 2845 2843 2841 2839 2837 2834 2832 2830 2828 2826 2824 2822 2820 2819 2817 2816 2815 2814 2813 2813 2812 2811 2810 2810 2809 2809 2809 2809 2809 2809 2809 2809 2809 2809 2809 2809 2810 2812 2814 2817 2820 2824 2827 2831 2834 2837 2839 2840 2841 2843 2845 2847 2848 2850 2852 2853 2854 2856 2857 2859 2861 2863 2864 2866 2868 2870 2872 2874 2875 2877 2879 2881 2883 2886 2888 2890
2866 2863 2861 2859 2856 2854 2852 2850 2848 2846 2844 2842 2840 2838 2836 2833 2831 2829 2827 2825 2823 2821 2819 2817 2816 2815 2814 2812 2812 2811 2811 2810 2809 2809 2809 2808 2808 2808 2808 2808 2808 2808 2808 2807 2807 2808 2809 2812 2814 2817 2820 2824 2828 2830 2833 2834 2836 2837 2839 2841 2843 2844 2847 2849 2850 2851 2853 2854 2855 2857 2859 2861 2862 2864 2865 2867 2870 2872 2873 2875 2877 2879 2881 2883 2886
2866 2863 2861 2859 2857 2854 2852 2851 2849 2847 2845 2843 2841 2839 2837 2834 2832 2830 2828 2826 2824 2822 2819 2817 2816 2814 2813 2811 2810 2810 2809 2808 2808 2808 2808 2807 2807 2807 2807 2806 2806 2807 2807 2807 2807 2807 2809 2810 2813 2815 2818 2821 2824 2826 2829 2830 2831 2833 2835 2837 2838 2840 2844 2846 2847 2848 2850 2851 2852 2854 2855 2857 2858 2860 2861 2863 2865 2868 2870 2872 2874 2876 2878 2880 2883
2866 2863 2861 2859 2857 2855 2853 2851 2849 2847 2845 2843 2841 2839 2837 2835 2833 2831 2828 2826 2824 2822 2819 2817 2815 2813 2811 2810 2809 2808 2807 2807 2806 2805 2806 2806 2805 2805 2805 2805 2805 2805 2806 2806 2807 2808 2809 2810 2812 2814 2816 2818 2821 2822 2824 2825 2826 2828 2831 2832 2834 2838 2841 2843 2844 2845 2847 2848 2849 2851 2852 2853 2854 2856 2857 2859 2861 2864 2866 2868 2870 2872 2874 2876 2878
2866 2864 2862 2860 2857 2855 2853 2852 2850 2848 2846 2843 2842 2840 2837 2835 2833 2831 2829 2827 2824 2822 2819 2817 2815 2813 2811 2809 2807 2806 2805 2804 2804 2803 2803 2803 2803 2803 2804 2804 2805 2805 2805 2805 2806 2807 2808 2809 2811 2812 2814 2816 2817 2819 2820 2821 2822 2824 2826 2828 2831 2836 2838 2839 2841 2842 2843 2844 2846 2847 2848 2849 2851 2852 2854 2855 2857 2860 2862 2864 2866 2868 2870 2872 2875
2866 2864 2862 2860 2858 2856 2854 2852 2850 2848 2846 2844 2842 2840 2838 2836 2833 2831 2829 2827 2825 2822 2820 2817 2815 2813 2811 2809 2807 2805 2804 2803 2802 2801 2801 2801 2801 2801 2802 2802 2803 2803 2803 2804 2805 2806 2806 2808 2809 2810 2812 2813 2814 2816 2816 2817 2818 2819 2822 2826 2830 2833 2834 2835 2837 2839 2840 2841 2842 2843 2845 2846 2847 2849 2850 2852 2854 2856 2858 2860 2862 2864 2866 2868 2871
2866 2864 2862 2860 2858 2856 2854 2852 2850 2848 2846 2844 2842 2840 2838 2836 2834 2832 2830 2827 2825 2822 2820 2817 2815 2813 2812 2810 2808 2806 2804 2802 2801 2800 2799 2799 2799 2799 2799 2800 2800 2801 2801 2802 2803 2804 2804 2805 2806 2808 2809 2810 2812 2813 2814 2814 2815 2816 2819 2823 2826 2828 2830 2832 2834 2835 2836 2837 2838 2840 2841 2843 2844 2846 2847 2849 2852 2853 2855 2857 2859 2860 2862 2864 2867
2866 2864 2862 2860 2858 2856 2854 2852 2850 2848 2846 2844 2842 2840 2838 2836 2834 2832 2829 2827 2825 2823 2820 2818 2815 2813 2812 2810 2808 2806 2804 2803 2801 2800 2799 2798 2798 2797 2797 2798 2798 2798 2799 2799 2800 2801 2802 2803 2803 2804 2806 2807 2808 2810 2811 2812 2813 2814 2816 2820 2822 2825 2826 2828 2830 2831 2832 2833 2835 2836 2838 2840 2841 2843 2845 2847 2849 2851 2852 2854 2856 2857 2859 2861 2863
2866 2864 2862 2860 2858 2856 2854 2852 2850 2848 2846 2844 2842 2840 2838 2836 2834 2832 2830 2827 2825 2823 2820 2818 2816 2813 2811 2809 2807 2806 2805 2803 2802 2800 2799 2798 2797 2796 2796 2796 2796 2796 2796 2796 2797 2797 2798 2799 2799 2800 2802 2803 2805 2806 2808 2809 2811 2812 2814 2817 2819 2821 2822 2824 2826 2827 2828 2830 2832 2834 2836 2837 2839 2840 2842 2844 2846 2847 2849 2851 2852 2854 2856 2858 2860
2866 2864 2862 2860 2858 2856 2854 2852 2850 2848 2845 2843 2841 2839 2837 2835 2833 2831 2829 2827 2824 2822 2819 2817 2815 2812 2810 2808 2807 2806 2805 2803 2802 2800 2799 2798 2797 2796 2795 2794 2794 2793 2793 2793 2793 2793 2794 2795 2795 2796 2798 2799 2801 2802 2804 2806 2808 2810 2812 2814 2815 2817 2818 2820 2822 2823 2825 2827 2829 2831 2833 2834 2836 2837 2839 2840 2842 2844 2846 2848 2849 2851 2853 2855 2857
2865 2863 2861 2859 2857 2856 2854 2852 2849 2847 2845 2843 2841 2839 2837 2835 2833 2831 2829 2826 2823 2821 2818 2815 2813 2811 2810 2808 2807 2805 2804 2803 2801 2800 2799 2798 2796 2795 2794 2793 2792 2792 2791 2791 2790 2790 2790 2791 2791 2792 2794 2795 2797 2799 2800 2803 2805 2807 2809 2811 2812 2813 2815 2817 2819 2820 2822 2824 2826 2828 2830 2831 2833 2834 2836 2837 2839 2841 2843 2844 2846 2848 2850 2851 2853
2864 2862 2860 2858 2856 2854 2853 2851 2849 2846 2844 2842 2840 2839 2837 2835 2833 2830 2827 2824 2821 2818 2816 2814 2813 2811 2809 2808 2806 2805 2804 2802 2801 2799 2798 2797 2796 2794 2793 2792 2791 2790 2789 2788 2788 2787 2787 2787 2787 2788 2789 2791 2792 2794 2796 2798 2800 2803 2805 2807 2809 2810 2812 2814 2815 2817 2819 2821 2823 2824 2826 2828 2830 2831 2833 2834 2836 2838 2839 2841 2842 2844 2846 2848 2849
2863 2860 2858 2857 2855 2853 2852 2850 2848 2846 2844 2841 2839 2837 2835 2834 2832 2830 2827 2824 2821 2818 2816 2814 2812 2810 2809 2807 2806 2805 2803 2802 2800 2798 2797 2796 2795 2794 2792 2791 2790 2788 2787 2786 2785 2785 2785 2784 2784 2785 2786 2787 2788 2790 2792 2794 2796 2799 2801 2803 2805 2807 2809 2810 2812 2814 2816 2818 2820 2821 2823 2825 2827 2828 2830 2831 2833 2835 2836 2838 2839 2841 2842 2844 2845
2862 2860 2858 2856 2854 2852 2851 2849 2847 2845 2844 2842 2840 2837 2833 2831 2829 2827 2826 2824 2822 2819 2816 2814 2812 2810 2809 2807 2806 2804 2803 2801 2800 2798 2797 2796 2795 2793 2791 2790 2788 2787 2786 2784 2783 2782 2782 2782 2782 2782 2783 2784 2785 2786 2788 2790 2792 2794 2797 2799 2801 2803 2805 2807 2809 2811 2813 2815 2817 2819 2821 2822 2824 2825 2827 2829 2830 2832 2833 2835 2836 2837 2838 2840 2841
2862 2859 2857 2855 2853 2852 2850 2848 2846 2844 2843 2842 2840 2839 2836 2833 2829 2826 2824 2824 2822 2820 2817 2814 2812 2810 2808 2807 2805 2804 2802 2801 2799 2798 2797 2795 2794 2793 2791 2789 2787 2786 2784 2783 2781 2781 2780 2780 2780 2781 2781 2781 2782 2783 2784 2786 2787 2790 2792 2795 2797 2799 2802 2804 2806 2808 2810 2812 2814 2816 2818 2819 2821 2822 2824 2826 2828 2829 2831 2832 2832 2833 2834 2836 2838
2861 2859 2856 2854 2853 2851 2849 2847 2845 2844 2842 2840 2839 2837 2836 2835 2832 2828 2824 2821 2820 2818 2816 2814 2811 2809 2807 2805 2804 2803 2801 2800 2799 2797 2796 2795 2794 2792 2790 2788 2786 2784 2783 2781 2780 2779 2779 2779 2779 2779 2780 2780 2780 2781 2782 2782 2784 2786 2789 2791 2794 2796 2799 2801 2803 2805 2807 2809 2811 2813 2815 2816 2818 2819 2821 2822 2824 2826 2827 2828 2829 2829 2830 2832 2833
2860 2858 2856 2854 2852 2850 2848 2846 2844 2843 2841 2839 2837 2836 2834 2833 2831 2829 2826 2821 2817 2815 2813 2811 2809 2807 2805 2804 2802 2800 2799 2798 2797 2796 2795 2794 2793 2791 2789 2787 2785 2783 2782 2780 2779 2778 2778 2778 2778 2779 2779 2779 2780 2780 2780 2781 2782 2784 2786 2788 2790 2793 2795 2797 2800 2802 2804 2806 2808 2810 2811 2813 2815 2816 2817 2819 2820 2822 2823 2825 2826 2826 2827 2828 2829
2858 2856 2854 2853 2851 2849 2847 2845 2843 2841 2839 2837 2835 2834 2832 2830 2828 2827 2825 2822 2819 2815 2811 2809 2807 2805 2803 2802 2800 2798 2797 2797 2796 2795 2793 2793 2792 2790 2789 2787 2784 2783 2781 2780 2778 2778 2777 2777 2777 2778 2778 2779 2779 2779 2780 2780 2781 2782 2784 2786 2788 2790 2792 2794 2796 2798 2800 2802 2804 2806 2808 2810 2811 2813 2814 2815 2817 2818 2819 2820 2821 2823 2824 2825 2826
2856 2854 2853 2851 2849 2847 2846 2844 2842 2840 2838 2836 2833 2832 2830 2828 2825 2823 2821 2819 2816 2813 2810 2807 2805 2803 2801 2799 2798 2797 2796 2795 2794 2793 2792 2792 2791 2789 2788 2786 2784 2782 2781 2779 2778 2777 2777 2777 2777 2777 2778 2778 2779 2779 2780 2780 2781 2781 2783 2784 2786 2787 2789 2791 2793 2795 2796 2798 2800 2802 2804 2806 2807 2809 2810 2812 2813 2814 2815 2816 2818 2819 2820 2821 2822
2856 2853 2851 2849 2848 2846 2844 2842 2840 2838 2836 2834 2832 2830 2828 2826 2824 2821 2818 2815 2813 2810 2807 2805 2803 2800 2799 2797 2796 2795 2794 2793 2793 2792 2791 2791 2790 2789 2787 2786 2784 2782 2781 2779 2778 2777 2777 2777 2777 2777 2778 2778 2778 2779 2780 2780 2780 2781 2782 2783 2784 2786 2787 2789 2791 2792 2794 2796 2797 2799 2801 2802 2804 2805 2807 2808 2809 2811 2812 2813 2814 2815 2816 2817 2819
2854 2852 2850 2848 2846 2844 2842 2841 2839 2837 2835 2833 2831 2829 2827 2824 2822 2819 2817 2814 2811 2809 2806 2804 2802 2799 2797 2796 2795 2794 2793 2792 2791 2791 2790 2789 2789 2788 2787 2786 2784 2782 2781 2780 2779 2778 2778 2777 2777 2777 2777 2778 2778 2778 2779 2780 2780 2781 2781 2782 2783 2784 2786 2787 2789 2790 2792 2793 2795 2796 2797 2799 2800 2802 2803 2805 2806 2807 2808 2809 2810 2811 2813 2814 2815
2851 2849 2847 2846 2844 2843 2841 2839 2837 2835 2834 2832 2830 2828 2826 2823 2821 2818 2815 2813 2810 2807 2805 2803 2801 2799 2797 2795 2794 2793 2792 2791 2790 2790 2789 2789 2788 2787 2787 2785 2784 2782 2782 2781 2780 2779 2778 2778 2778 2777 2777 2777 2778 2778 2779 2779 2780 2780 2781 2781 2782 2783 2784 2785 2787 2788 2789 2790 2792 2793 2795 2796 2797 2798 2800 2801 2802 2803 2805 2806 2807 2808 2809 2811 2812
2849 2847 2845 2843 2842 2841 2839 2837 2836 2834 2832 2830 2829 2827 2824 2822 2819 2817 2814 2812 2809 2806 2804 2802 2800 2798 2796 2794 2793 2792 2791 2790 2790 2789 2789 2788 2788 2787 2786 2785 2784 2783 2782 2781 2781 2780 2779 2779 2778 2778 2778 2777 2777 2778 2778 2778 2779 2779 2780 2781 2781 2782 2783 2784 2785 2786 2787 2788 2790 2791 2792 2793 2794 2796 2797 2798 2799 2801 2802 2803 2804 2806 2807 2808 2809
2849 2846 2844 2842 2840 2839 2837 2836 2834 2832 2831 2829 2827 2825 2822 2820 2818 2816 2813 2811 2808 2806 2803 2801 2799 2797 2795 2794 2792 2791 2791 2790 2790 2789 2789 2789 2788 2787 2786 2785 2784 2783 2782 2782 2781 2781 2780 2780 2779 2779 2778 2778 2778 2778 2778 2778 2778 2779 2779 2780 2781 2781 2782 2783 2784 2785 2786 2787 2788 2789 2790 2791 2793 2794 2795 2796 2797 2798 2800 2801 2802 2804 2805 2806 2807
2848 2845 2843 2841 2839 2837 2835 2834 2832 2830 2829 2827 2825 2823 2820 2818 2816 2814 2812 2810 2808 2805 2803 2801 2799 2797 2795 2793 2792 2791 2790 2790 2789 2789 2789 2788 2788 2787 2786 2786 2785 2783 2783 2782 2782 2782 2781 2780 2780 2779 2779 2778 2778 2778 2778 2778 2778 2779 2779 2780 2780 2781 2782 2782 2783 2784 2785 2786 2787 2788 2789 2790 2791 2792 2794 2795 2796 2797 2799 2800 2801 2802 2803 2805 2806
2848 2846 2843 2841 2838 2836 2834 2832 2831 2829 2827 2825 2823 2821 2819 2817 2815 2813 2811 2809 2807 2805 2803 2801 2799 2797 2795 2793 2792 2791 2790 2789 2789 2789 2789 2788 2787 2787 2786 2786 2785 2784 2783 2783 2782 2782 2782 2781 2781 2780 2780 2779 2779 2779 2779 2779 2779 2780 2780 2780 2780 2781 2781 2782 2783 2784 2785 2786 2787 2788 2789 2790 2791 2792 2793 2794 2795 2797 2798 2799 2800 2801 2802 2803 2805
2849 2846 2843 2840 2838 2836 2834 2832 2830 2828 2826 2824 2822 2820 2818 2816 2814 2812 2811 2809 2808 2806 2804 2802 2799 2797 2795 2794 2792 2791 2790 2789 2789 2789 2789 2788 2788 2787 2786 2786 2785 2785 2784 2783 2783 2783 2782 2782 2782 2781 2781 2780 2780 2780 2780 2780 2780 2780 2781 2781 2781 2781 2781 2782 2783 2784 2785 2785 2786 2787 2788 2789 2791 2792 2793 2794 2795 2796 2797 2798 2799 2800 2801 2802 2803
2849 2846 2843 2840 2838 2835 2833 2831 2829 2827 2825 2823 2821 2819 2817 2816 2814 2812 2810 2809 2808 2806 2804 2802 2800 2798 2796 2795 2793 2792 2791 2790 2790 2789 2789 2788 2788 2787 2787 2786 2785 2785 2784 2784 2783 2783 2783 2783 2782 2782 2782 2781 2781 2781 2781 2781 2781 2781 2782 2782 2782 2782 2782 2783 2783 2784 2785 2785 2786 2787 2788 2789 2790 2791 2792 2793 2794 2795 2796 2797 2798 2799 2800 2802 2803
2849 2846 2844 2841 2838 2836 2833 2831 2829 2827 2825 2823 2821 2819 2817 2816 2814 2812 2811 2809 2808 2806 2805 2803 2801 2799 2797 2796 2794 2793 2793 2792 2791 2790 2789 2788 2788 2787 2787 2786 2785 2785 2785 2785 2784 2784 2784 2783 2783 2782 2782 2782 2782 2782 2782 2782 2782 2782 2783 2783 2784 2784 2784 2784 2784 2785 2785 2786 2787 2788 2788 2789 2790 2791 2792 2793 2794 2795 2796 2797 2798 2799 2800 2801 2802
2849 2846 2844 2841 2839 2836 2834 2831 2829 2827 2825 2823 2821 2819 2817 2816 2814 2813 2811 2809 2808 2807 2805 2804 2802 2800 2798 2797 2795 2794 2793 2793 2792 2791 2790 2789 2788 2788 2787 2786 2786 2785 2785 2785 2785 2785 2784 2784 2783 2783 2783 2783 2783 2783 2783 2783 2783 2783 2783 2784 2784 2785 2785 2785 2785 2786 2786 2787 2787 2788 2789 2789 2790 2791 2792 2793 2794 2795 2796 2796 2797 2798 2799 2799 2800
2848 2846 2843 2841 2839 2836 2834 2832 2829 2827 2825 2823 2821 2819 2817 2816 2814 2812 2811 2810 2808 2807 2806 2804 2803 2801 2799 2798 2796 2795 2794 2793 2792 2792 2791 2790 2789 2788 2788 2787 2786 2786 2785 2785 2785 2785 2785 2784 2784 2784 2783 2783 2783 2783 2783 2783 2783 2783 2784 2784 2784 2785 2785 2785 2786 2786 2787 2787 2788 2788 2789 2789 2790 2791 2792 2792 2793 2794 2794 2795 2796 2796 2797 2797 2798
2848 2845 2843 2841 2839 2836 2834 2832 2830 2827 2825 2823 2821 2819 2817 2816 2814 2812 2811 2810 2809 2807 2806 2804 2803 2802 2800 2798 2797 2796 2795 2794 2793 2792 2791 2790 2790 2789 2788 2787 2787 2786 2785 2785 2785 2785 2785 2784 2784 2784 2784 2784 2784 2784 2784 2784 2784 2784 2784 2784 2784 2785 2785 2785 2786 2786 2787 2787 2788 2788 2789 2789 2790 2790 2791 2791 2792 2792 2793 2793 2794 2794 2795 2795 2795
2848 2845 2843 2841 2839 2836 2834 2832 2830 2828 2825 2823 2821 2819 2817 2815 2814 2812 2811 2810 2808 2807 2806 2804 2803 2802 2801 2799 2797 2796 2795 2794 2793 2792 2791 2791 2790 2789 2788 2788 2787 2786 2785 2785 2785 2784 2784 2784 2784 2784 2784 2784 2784 2784 2784 2784 2784 2784 2785 2785 2785 2785 2785 2785 2786 2786 2786 2787 2787 2788 2788 2788 2789 2789 2789 2790 2790 2791 2791 2791 2791 2792 2792 2792 2792
2848 2845 2842 2840 2838 2836 2834 2831 2829 2827 2825 2823 2821 2819 2817 2815 2814 2812 2811 2809 2808 2807 2806 2804 2803 2802 2800 2799 2798 2796 2795 2794 2792 2792 2791 2790 2790 2789 2788 2788 2787 2786 2785 2785 2784 2784 2784 2783 2783 2783 2783 2783 2783 2783 2784 2784 2784 2784 2784 2785 2785 2785 2785 2785 2785 2785 2786 2786 2786 2786 2787 2787 2787 2787 2788 2788 2788 2788 2788 2789 2789 2789 2789 2789 2789
2847 2844 2841 2839 2837 2835 2833 2831 2829 2827 2825 2823 2821 2819 2817 2815 2813 2812 2810 2809 2808 2806 2805 2804 2802 2801 2800 2799 2797 2796 2795 2794 2793 2791 2790 2789 2789 2788 2788 2787 2786 2786 2785 2785 2784 2783 2783 2783 2783 2782 2782 2782 2782 2783 2783 2783 2783 2783 2783 2783 2784 2784 2784 2784 2784 2784 2784 2785 2785 2785 2785 2785 2785 2785 2785 2785 2785 2785 2786 2786 2786 2786 2786 2786 2786